Saint George Island, AK

12:21 AM AKST on February 24, 2017 (GMT -0900)
Saint George

Weather History for PAPB - September, 2012

Change the Weather History Date:

Saturday, September 15, 2012

  Actual Average Record
Temperature  
Mean Temperature 43 °F -  
Max Temperature 44 °F 47 °F 54 °F (2003)
Min Temperature 42 °F 40 °F 37 °F (2008)
Degree Days  
Heating Degree Days 22    
Moisture  
Dew Point 38 °F    
Average Humidity 84    
Maximum Humidity 93    
Minimum Humidity 70    
Precipitation  
Precipitation 0.26 in - - ()
Sea Level Pressure  
Sea Level Pressure 29.53 in    
Wind  
Wind Speed 22 mph (North)    
Max Wind Speed 33 mph    
Max Gust Speed 66 mph    
Visibility 9 miles    
Events Rain    
Averages and records for this station are not official NWS values.
T = Trace of Precipitation, MM = Missing Value Source: NWS Daily Summary

Daily Weather History Graph

Daily Weather History Graph

Search for Another Location

Airport or City:

Trip Planner

Search our weather history database for the weather conditions in past years. The results will help you decide how hot, cold, wet, or windy it might be!

Date:

Astronomy

Sep. 15, 2012 Rise Set
Actual Time 8:51 AM AKDT 9:34 PM AKDT
Civil Twilight 8:13 AM AKDT 10:12 PM AKDT
Nautical Twilight 7:26 AM AKDT 10:58 PM AKDT
Astronomical Twilight 6:36 AM AKDT 11:48 PM AKDT
Moon 8:45 AM AKDT (9/15) 8:57 PM AKDT (9/15)
Length of Visible Light 13h 59m
Length of Day
12h 43m
Waning Crescent, 0% of the Moon is Illuminated
Sep 15
Waning Crescent
Sep 15
New
Sep 22
First Quarter
Sep 29
Full
Oct 7
Last Quarter

Hourly Weather History & Observations

Time (AKDT) Temp. Windchill Dew Point Humidity Pressure Visibility Wind Dir Wind Speed Gust Speed Precip Events Conditions
12:53 AM 43.0 °F 34.2 °F 41.0 °F 93% 29.59 in 10.0 mi NNE 20.7 mph - 0.01 in   Overcast
1:53 AM 43.0 °F 34.0 °F 39.9 °F 89% 29.58 in 10.0 mi NNE 21.9 mph - N/A   Overcast
2:33 AM 42.8 °F 34.0 °F 39.2 °F 87% 29.61 in 10.0 mi NNE 20.7 mph 27.6 mph N/A   Overcast
2:53 AM 43.0 °F 34.5 °F 39.9 °F 89% 29.57 in 10.0 mi North 19.6 mph - N/A   Mostly Cloudy
3:04 AM 42.8 °F 35.1 °F 39.2 °F 87% 29.61 in 10.0 mi North 16.1 mph - N/A   Overcast
3:53 AM 43.0 °F 34.5 °F 39.0 °F 86% 29.57 in 10.0 mi North 19.6 mph 25.3 mph N/A   Mostly Cloudy
4:53 AM 43.0 °F 35.1 °F 39.0 °F 86% 29.56 in 10.0 mi North 17.3 mph 21.9 mph N/A   Overcast
5:53 AM 43.0 °F 34.0 °F 39.0 °F 86% 29.55 in 10.0 mi North 21.9 mph 33.4 mph 0.00 in   Overcast
6:53 AM 43.0 °F 34.5 °F 37.9 °F 82% 29.53 in 10.0 mi North 19.6 mph 28.8 mph N/A   Overcast
7:16 AM 42.8 °F 35.1 °F 39.2 °F 87% 29.56 in 10.0 mi North 16.1 mph 34.5 mph 0.00 in Rain Light Rain
7:53 AM 42.1 °F 32.8 °F 39.0 °F 89% 29.52 in 10.0 mi North 21.9 mph 38.0 mph 0.01 in Rain Light Rain
8:19 AM 42.8 °F 34.5 °F 39.2 °F 87% 29.55 in 10.0 mi North 18.4 mph 35.7 mph 0.00 in Rain Light Rain
8:34 AM 42.8 °F 33.5 °F 39.2 °F 87% 29.54 in 8.0 mi NNE 23.0 mph 33.4 mph 0.02 in Rain Rain
8:53 AM 43.0 °F 34.5 °F 39.0 °F 86% 29.51 in 9.0 mi NNE 19.6 mph 39.1 mph 0.04 in Rain Light Rain
9:53 AM 44.1 °F 34.8 °F 39.9 °F 85% 29.49 in 10.0 mi North 25.3 mph 50.6 mph 0.06 in   Overcast
10:11 AM 44.6 °F 35.1 °F 39.2 °F 81% 29.52 in 8.0 mi North 27.6 mph 47.2 mph 0.00 in Rain Light Rain
10:23 AM 44.6 °F 35.7 °F 39.2 °F 81% 29.52 in 9.0 mi North 24.2 mph 50.6 mph 0.00 in   Overcast
10:53 AM 43.0 °F 33.8 °F 39.9 °F 89% 29.49 in 5.0 mi North 23.0 mph 48.3 mph 0.01 in Rain Light Rain
11:53 AM 43.0 °F 32.9 °F 39.9 °F 89% 29.47 in 4.0 mi North 27.6 mph 48.3 mph 0.07 in Rain Light Rain
12:53 PM 44.1 °F 34.6 °F 39.0 °F 82% 29.45 in 10.0 mi North 26.5 mph 50.6 mph 0.01 in   Overcast
1:02 PM 44.6 °F 34.7 °F 39.2 °F 81% 29.50 in 10.0 mi North 29.9 mph 50.6 mph N/A   Overcast
1:53 PM 43.0 °F 34.0 °F 37.9 °F 82% 29.46 in 10.0 mi North 21.9 mph 56.4 mph N/A   Overcast
2:43 PM 42.8 °F 33.8 °F 37.4 °F 81% - 9.0 mi North 21.9 mph 44.9 mph N/A   Overcast
2:53 PM 43.0 °F 34.8 °F 39.0 °F 86% - 9.0 mi North 18.4 mph 48.3 mph N/A   Overcast
3:53 PM 42.1 °F 32.6 °F 39.0 °F 89% - 5.0 mi North 23.0 mph 58.7 mph 0.02 in Rain Light Rain
4:53 PM 43.0 °F 33.8 °F 39.0 °F 86% - 7.0 mi North 23.0 mph 54.1 mph 0.03 in   Overcast
5:03 PM 42.8 °F 34.5 °F 39.2 °F 87% - 6.0 mi NNW 18.4 mph 47.2 mph 0.00 in Rain Light Rain
5:43 PM 42.8 °F 34.5 °F 37.4 °F 81% - 10.0 mi North 18.4 mph 52.9 mph 0.00 in   Squalls
5:53 PM 43.0 °F 35.7 °F 39.0 °F 86% - 10.0 mi North 15.0 mph 32.2 mph 0.00 in   Overcast
6:31 PM 42.8 °F 32.5 °F 37.4 °F 81% - 10.0 mi North 28.8 mph 49.5 mph N/A   Overcast
6:53 PM 43.0 °F 33.5 °F 37.9 °F 82% - 10.0 mi NNW 24.2 mph 63.3 mph N/A   Overcast
7:53 PM 43.0 °F 33.5 °F 37.9 °F 82% - 10.0 mi NNW 24.2 mph 51.8 mph N/A   Overcast
8:53 PM 43.0 °F 32.9 °F 37.0 °F 80% - 10.0 mi North 27.6 mph 52.9 mph N/A   Overcast
9:53 PM 42.1 °F 31.3 °F 36.0 °F 79% - 10.0 mi NNW 29.9 mph 65.6 mph N/A   Overcast
10:53 PM 42.1 °F 31.7 °F 35.1 °F 76% - 10.0 mi NNW 27.6 mph 54.1 mph N/A   Overcast
11:11 PM 42.8 °F 32.1 °F 35.6 °F 76% - 10.0 mi North 31.1 mph 61.0 mph N/A   Overcast
11:53 PM 42.1 °F 30.8 °F 33.1 °F 70% - 10.0 mi North 33.4 mph 48.3 mph N/A   Overcast